N5319M KAPN-KAPN

Flight info

Callsign N5319M
Flight time 0h 3m
Altitude VFR
Route
Aircraft P28B/L-VGD/C

Departure

Time 2026-04-17 22:43
Airport Alpena County Regional Airport (KAPN)

Arrival

Time 2026-04-17 22:47
Airport Alpena County Regional Airport (KAPN)
Time Latitude Longitude Altitude Speed Heading
2026-04-17 22:35 45.08005 -83.56436 685 ft 0 kts 270°
2026-04-17 22:36 45.07973 -83.56443 685 ft 18 kts 181°
2026-04-17 22:36 45.07944 -83.56444 685 ft 0 kts 188°
2026-04-17 22:36 45.07912 -83.56447 685 ft 14 kts 193°
2026-04-17 22:37 45.07789 -83.56536 685 ft 22 kts 207°
2026-04-17 22:37 45.07745 -83.56568 685 ft 0 kts 212°
2026-04-17 22:41 45.07729 -83.56583 685 ft 12 kts 207°
2026-04-17 22:42 45.07623 -83.56648 685 ft 5 kts 109°
2026-04-17 22:42 45.07622 -83.56645 685 ft 0 kts 116°
2026-04-17 22:42 45.07634 -83.56598 684 ft 15 kts 65°
2026-04-17 22:42 45.07736 -83.56352 684 ft 46 kts 59°
2026-04-17 22:43 45.07965 -83.55803 772 ft 78 kts 61°
2026-04-17 22:43 45.08261 -83.55095 985 ft 93 kts 63°
2026-04-17 22:43 45.08639 -83.54403 1371 ft 88 kts 43°
2026-04-17 22:43 45.09354 -83.54440 1530 ft 118 kts 339°
2026-04-17 22:44 45.10062 -83.55138 1629 ft 133 kts 294°
2026-04-17 22:44 45.10171 -83.56472 1534 ft 142 kts 252°
2026-04-17 22:44 45.09951 -83.57805 1689 ft 137 kts 244°
2026-04-17 22:44 45.09607 -83.59038 1819 ft 133 kts 232°
2026-04-17 22:45 45.09075 -83.60128 1691 ft 133 kts 211°
2026-04-17 22:45 45.08239 -83.60451 1648 ft 123 kts 167°
2026-04-17 22:45 45.07507 -83.59941 1452 ft 107 kts 147°
2026-04-17 22:45 45.06954 -83.59377 1242 ft 86 kts 137°
2026-04-17 22:46 45.06759 -83.58743 1065 ft 86 kts 53°
2026-04-17 22:46 45.07120 -83.58052 1005 ft 79 kts 72°
2026-04-17 22:46 45.07331 -83.57334 897 ft 79 kts 65°
2026-04-17 22:46 45.07592 -83.56706 722 ft 66 kts 64°
2026-04-17 22:47 45.07788 -83.56228 687 ft 47 kts 58°
2026-04-17 22:47 45.07908 -83.55941 685 ft 25 kts 61°
2026-04-17 22:47 45.08009 -83.55695 685 ft 29 kts 58°
2026-04-17 22:47 45.08130 -83.55400 686 ft 34 kts 60°
2026-04-17 22:48 45.08231 -83.55153 685 ft 20 kts 60°
2026-04-17 22:48 45.08267 -83.55078 686 ft 6 kts 22°
2026-04-17 22:48 45.08310 -83.55105 685 ft 12 kts 297°
2026-04-17 22:48 45.08383 -83.55287 685 ft 31 kts 303°
2026-04-17 22:49 45.08500 -83.55582 685 ft 29 kts 302°
2026-04-17 22:49 45.08600 -83.55821 685 ft 21 kts 300°
2026-04-17 22:49 45.08666 -83.55996 685 ft 19 kts 300°
2026-04-17 22:49 45.08733 -83.56155 685 ft 18 kts 298°
2026-04-17 22:50 45.08780 -83.56285 685 ft 8 kts 255°
2026-04-17 22:50 45.08653 -83.56345 685 ft 12 kts 199°
2026-04-17 22:50 45.08600 -83.56403 685 ft 0 kts 270°
2026-04-17 22:50 45.08599 -83.56403 685 ft 0 kts 270°
2026-04-17 22:57 45.08599 -83.56427 685 ft 8 kts 272°
2026-04-17 22:57 45.08600 -83.56443 685 ft 0 kts 258°
2026-04-17 23:00 45.08562 -83.56408 686 ft 25 kts 174°
2026-04-17 23:00 45.08540 -83.56407 686 ft 22 kts 179°
2026-04-17 23:00 45.08513 -83.56407 686 ft 25 kts 182°
2026-04-17 23:00 45.08280 -83.56408 686 ft 37 kts 178°
2026-04-17 23:01 45.08109 -83.56325 686 ft 21 kts 181°
2026-04-17 23:01 45.07973 -83.56324 685 ft 16 kts 180°
2026-04-17 23:01 45.07904 -83.56411 685 ft 20 kts 238°
2026-04-17 23:01 45.07764 -83.56557 685 ft 18 kts 212°
2026-04-17 23:02 45.07749 -83.56570 685 ft 5 kts 208°
2026-04-17 23:02 45.07632 -83.56632 685 ft 17 kts 144°
2026-04-17 23:02 45.07741 -83.56346 684 ft 64 kts 60°
2026-04-17 23:02 45.08036 -83.55627 809 ft 95 kts 63°
2026-04-17 23:03 45.08414 -83.54908 1077 ft 94 kts 43°
2026-04-17 23:03 45.09099 -83.54880 1239 ft 116 kts 341°
2026-04-17 23:03 45.09653 -83.55673 1459 ft 101 kts 272°
2026-04-17 23:03 45.09368 -83.56398 1520 ft 97 kts 221°
2026-04-17 23:04 45.08980 -83.57280 1537 ft 110 kts 224°
2026-04-17 23:04 45.08520 -83.58129 1700 ft 104 kts 221°
2026-04-17 23:04 45.08078 -83.58850 1711 ft 87 kts 207°
2026-04-17 23:04 45.07522 -83.58826 1375 ft 90 kts 139°
2026-04-17 23:05 45.07251 -83.57912 986 ft 90 kts 106°
2026-04-17 23:05 45.07431 -83.57156 802 ft 82 kts 63°
2026-04-17 23:05 45.07657 -83.56544 688 ft 61 kts 60°
2026-04-17 23:05 45.07833 -83.56120 683 ft 45 kts 59°
2026-04-17 23:06 45.08040 -83.55609 756 ft 68 kts 63°
2026-04-17 23:06 45.08291 -83.55019 897 ft 71 kts 59°
2026-04-17 23:06 45.08647 -83.54474 1012 ft 84 kts 40°
2026-04-17 23:06 45.09191 -83.54737 1095 ft 109 kts 318°